Location: Grassland Mountain Observatory
(35.7543°N, 82.8038°W)
Time: 11:45:20
(UTC-05:00)

N. Korean satellite - Visible Passes

Search period start: 03 December 2021 00:00
Search period end: 13 December 2021 00:00
Orbit: 447 x 495 km, 97.3° (Epoch: 02 December)

Date Brightness Start Highest point End Pass type
(mag) Time Alt. Az. Time Alt. Az. Time Alt. Az.
03 Dec 8.9 05:05:51 10° NE 05:08:33 22° E 05:11:14 10° SSE visible
03 Dec 8.1 06:39:33 10° NW 06:41:31 15° WNW 06:43:30 10° WSW visible
04 Dec 6.9 06:10:05 10° N 06:13:11 35° WNW 06:16:18 10° SW visible
05 Dec 6.4 05:41:22 10° NNE 05:44:44 80° E 05:48:06 10° S visible
05 Dec 9.5 17:46:09 10° SSW 17:48:54 21° W 17:51:38 10° NW visible
06 Dec 8.4 05:13:13 10° NE 05:16:11 28° E 05:19:08 10° SSE visible
06 Dec 8.3 06:47:44 10° NW 06:49:03 12° WNW 06:50:23 10° W visible
07 Dec 9.8 04:46:15 10° ENE 04:47:30 12° E 04:48:44 10° ESE visible
07 Dec 7.3 06:17:48 10° NNW 06:20:44 28° WNW 06:23:39 10° SW visible
08 Dec 6.2 05:48:54 10° N 05:52:17 77° W 05:55:39 10° SSW visible
08 Dec 9.7 17:54:09 10° SW 17:56:28 17° W 17:58:47 10° NW visible
09 Dec 7.9 05:20:33 10° NNE 05:23:42 36° E 05:26:52 10° SSE visible
10 Dec 9.5 04:53:02 10° ENE 04:55:02 15° E 04:57:02 10° SE visible
10 Dec 7.6 06:26:09 14° NNW 06:28:10 22° WNW 06:30:50 10° SW visible
11 Dec 6.3 05:57:59 25° N 05:59:42 58° WNW 06:03:03 10° SSW visible
11 Dec 9.9 18:02:16 10° WSW 18:03:58 13° W 18:05:39 10° WNW visible
12 Dec 7.3 05:29:37 27° NE 05:31:09 48° E 05:34:26 10° S visible
